When you browse on this site, cookies collect data to enhance your experience and personalize the content and advertising you see.
Visit our Privacy Policy to learn more. By continuing to use the site, you agree to this use of cookies and data.
  • In United Kingdom
  • List of Countries
  • For 7 days
  • Water Temperature
  • Weather Map
  • Weather Widgets
  • user-avatar
    Login

    Hourly Weather Porto Alegre

    Today, 25 February, Tuesday

    Time Temperature Precipitation Wind Pressure Humidity
    00:00 +26°C° 0.1 mm 2 mps 754 mmHg 71%
    01:00 +26°C° 0.1 mm 2 mps 754 mmHg 72%
    02:00 +25°C° 0.1 mm 1 mps 753 mmHg 72%
    03:00 +25°C° 0.1 mm 1 mps 753 mmHg 73%
    04:00 +25°C° 0.3 mm 1 mps 753 mmHg 75%
    05:00 +25°C° 0.3 mm 1 mps 753 mmHg 77%
    06:00 +24°C° 0.3 mm 1 mps 753 mmHg 79%
    07:00 +25°C° 0.6 mm 2 mps 754 mmHg 76%
    08:00 +26°C° 0.6 mm 3 mps 754 mmHg 74%
    09:00 +27°C° 0.6 mm 3 mps 754 mmHg 72%
    10:00 +30°C° 0 mm 3 mps 754 mmHg 63%
    11:00 +33°C° 0 mm 3 mps 754 mmHg 54%
    12:00 +35°C° 0 mm 3 mps 754 mmHg 45%
    13:00 +36°C° 0 mm 2 mps 753 mmHg 43%
    14:00 +36°C° 0 mm 2 mps 752 mmHg 42%
    15:00 +37°C° 0 mm 2 mps 752 mmHg 40%
    16:00 +35°C° 0.2 mm 2 mps 752 mmHg 46%
    17:00 +33°C° 0.2 mm 3 mps 751 mmHg 53%
    18:00 +31°C° 0.2 mm 3 mps 751 mmHg 60%
    19:00 +29°C° 2 mm 3 mps 752 mmHg 68%
    20:00 +28°C° 2 mm 2 mps 752 mmHg 76%
    21:00 +26°C° 2 mm 1 mps 753 mmHg 85%
    22:00 +26°C° 1.7 mm 1 mps 753 mmHg 85%
    23:00 +26°C° 1.7 mm 1 mps 753 mmHg 85%

    Tomorrow, 26 February, Wednesday

    Time Temperature Precipitation Wind Pressure Humidity
    00:00 +25°C° 1.7 mm 1 mps 753 mmHg 85%
    01:00 +25°C° 1.7 mm 2 mps 753 mmHg 86%
    02:00 +25°C° 1.7 mm 3 mps 753 mmHg 86%
    03:00 +23°C° 1.7 mm 4 mps 753 mmHg 87%
    04:00 +23°C° 0.5 mm 5 mps 753 mmHg 85%
    05:00 +22°C° 0.5 mm 5 mps 753 mmHg 84%
    06:00 +22°C° 0.5 mm 5 mps 754 mmHg 82%
    07:00 +23°C° 0.1 mm 4 mps 754 mmHg 77%
    08:00 +23°C° 0.1 mm 4 mps 755 mmHg 73%
    09:00 +25°C° 0.1 mm 4 mps 755 mmHg 68%
    10:00 +26°C° 0 mm 4 mps 755 mmHg 60%
    11:00 +27°C° 0 mm 4 mps 755 mmHg 51%
    12:00 +28°C° 0 mm 4 mps 756 mmHg 43%
    13:00 +28°C° 0 mm 5 mps 755 mmHg 42%
    14:00 +28°C° 0 mm 5 mps 755 mmHg 42%
    15:00 +28°C° 0 mm 5 mps 755 mmHg 41%
    16:00 +27°C° 0 mm 5 mps 755 mmHg 45%
    17:00 +26°C° 0 mm 4 mps 755 mmHg 48%
    18:00 +25°C° 0 mm 4 mps 755 mmHg 52%
    19:00 +23°C° 0 mm 4 mps 756 mmHg 56%
    20:00 +22°C° 0 mm 4 mps 756 mmHg 61%
    21:00 +21°C° 0 mm 3 mps 757 mmHg 65%
    22:00 +21°C° 0 mm 3 mps 757 mmHg 67%
    23:00 +20°C° 0 mm 2 mps 757 mmHg 68%

    Day after tomorrow, 27 February, Thursday

    Time Temperature Precipitation Wind Pressure Humidity
    00:00 +21°C° 0 mm 1 mps 757 mmHg 70%
    01:00 +21°C° 0 mm 1 mps 757 mmHg 69%
    02:00 +21°C° 0 mm 1 mps 757 mmHg 69%
    03:00 +21°C° 0 mm 1 mps 757 mmHg 68%
    04:00 +21°C° 0 mm 1 mps 757 mmHg 70%
    05:00 +20°C° 0 mm 1 mps 757 mmHg 73%
    06:00 +20°C° 0 mm 1 mps 757 mmHg 75%
    07:00 +21°C° 0 mm 1 mps 757 mmHg 69%
    08:00 +23°C° 0 mm 1 mps 757 mmHg 64%
    09:00 +24°C° 0 mm 1 mps 758 mmHg 58%
    10:00 +25°C° 0 mm 1 mps 757 mmHg 53%
    11:00 +27°C° 0 mm 2 mps 757 mmHg 48%
    12:00 +28°C° 0 mm 2 mps 757 mmHg 43%
    13:00 +28°C° 0 mm 2 mps 757 mmHg 43%
    14:00 +28°C° 0 mm 3 mps 757 mmHg 44%
    15:00 +28°C° 0 mm 3 mps 756 mmHg 44%
    16:00 +27°C° 0 mm 4 mps 756 mmHg 47%
    17:00 +26°C° 0 mm 4 mps 756 mmHg 50%
    18:00 +25°C° 0 mm 4 mps 756 mmHg 53%
    19:00 +23°C° 0 mm 4 mps 757 mmHg 57%
    20:00 +22°C° 0 mm 4 mps 757 mmHg 62%
    21:00 +21°C° 0 mm 4 mps 758 mmHg 66%
    22:00 +21°C° 0 mm 3 mps 758 mmHg 69%
    23:00 +20°C° 0 mm 2 mps 758 mmHg 71%

    28 February, Friday

    Time Temperature Precipitation Wind Pressure Humidity
    00:00 +19°C° 0 mm 2 mps 758 mmHg 73%
    01:00 +20°C° 0 mm 1 mps 758 mmHg 74%
    02:00 +20°C° 0 mm 1 mps 758 mmHg 76%
    03:00 +19°C° 0 mm 1 mps 758 mmHg 77%
    04:00 +19°C° 0 mm 1 mps 758 mmHg 78%
    05:00 +17°C° 0 mm 0 mps 758 mmHg 79%
    06:00 +17°C° 0 mm 0 mps 758 mmHg 80%
    07:00 +19°C° 0 mm 0 mps 758 mmHg 73%
    08:00 +21°C° 0 mm 0 mps 758 mmHg 65%
    09:00 +22°C° 0 mm 0 mps 759 mmHg 58%
    10:00 +24°C° 0 mm 0 mps 759 mmHg 53%
    11:00 +28°C° 0 mm 1 mps 759 mmHg 47%
    12:00 +30°C° 0 mm 1 mps 759 mmHg 42%
    13:00 +30°C° 0 mm 2 mps 758 mmHg 41%
    14:00 +30°C° 0 mm 2 mps 758 mmHg 39%
    15:00 +30°C° 0 mm 3 mps 757 mmHg 38%
    16:00 +29°C° 0 mm 4 mps 757 mmHg 42%
    17:00 +28°C° 0 mm 4 mps 757 mmHg 46%
    18:00 +27°C° 0 mm 5 mps 757 mmHg 50%
    19:00 +26°C° 0 mm 4 mps 758 mmHg 56%
    20:00 +23°C° 0 mm 4 mps 759 mmHg 62%
    21:00 +22°C° 0 mm 4 mps 759 mmHg 68%
    22:00 +22°C° 0 mm 3 mps 759 mmHg 71%
    23:00 +21°C° 0 mm 3 mps 759 mmHg 74%

    29 February, Saturday

    Time Temperature Precipitation Wind Pressure Humidity
    00:00 +21°C° 0 mm 2 mps 759 mmHg 77%
    01:00 +20°C° 0 mm 2 mps 759 mmHg 79%
    02:00 +21°C° 0 mm 1 mps 759 mmHg 82%
    03:00 +20°C° 0 mm 1 mps 759 mmHg 84%
    04:00 +20°C° 0 mm 1 mps 759 mmHg 84%
    05:00 +20°C° 0 mm 1 mps 760 mmHg 85%
    06:00 +20°C° 0 mm 1 mps 760 mmHg 85%
    07:00 +22°C° 0 mm 1 mps 760 mmHg 78%
    08:00 +23°C° 0 mm 1 mps 761 mmHg 70%
    09:00 +25°C° 0 mm 1 mps 761 mmHg 63%
    10:00 +28°C° 0 mm 1 mps 761 mmHg 54%
    11:00 +30°C° 0 mm 1 mps 761 mmHg 46%
    12:00 +32°C° 0 mm 1 mps 761 mmHg 37%
    13:00 +32°C° 0 mm 2 mps 761 mmHg 38%
    14:00 +33°C° 0 mm 4 mps 760 mmHg 39%
    15:00 +32°C° 0 mm 5 mps 760 mmHg 41%
    16:00 +30°C° 0 mm 5 mps 760 mmHg 45%
    17:00 +29°C° 0 mm 5 mps 760 mmHg 50%
    18:00 +28°C° 0 mm 5 mps 761 mmHg 55%
    19:00 +27°C° 0 mm 5 mps 761 mmHg 60%
    20:00 +26°C° 0 mm 4 mps 762 mmHg 66%
    21:00 +23°C° 0 mm 4 mps 762 mmHg 71%
    22:00 +24°C° 0 mm 3 mps 762 mmHg 73%
    23:00 +22°C° 0 mm 3 mps 763 mmHg 75%

    1 March, Sunday

    Time Temperature Precipitation Wind Pressure Humidity
    00:00 +22°C° 0 mm 3 mps 763 mmHg 77%
    01:00 +23°C° 0 mm 2 mps 762 mmHg 79%
    02:00 +21°C° 0 mm 2 mps 762 mmHg 81%
    03:00 +22°C° 0 mm 1 mps 762 mmHg 82%
    04:00 +21°C° 0 mm 1 mps 762 mmHg 83%
    05:00 +20°C° 0 mm 2 mps 762 mmHg 83%
    06:00 +20°C° 0 mm 2 mps 763 mmHg 83%
    07:00 +22°C° 0 mm 1 mps 763 mmHg 74%
    08:00 +24°C° 0 mm 1 mps 763 mmHg 66%
    09:00 +24°C° 0 mm 0 mps 763 mmHg 57%
    10:00 +28°C° 0 mm 1 mps 763 mmHg 51%
    11:00 +29°C° 0 mm 2 mps 763 mmHg 45%
    12:00 +31°C° 0 mm 2 mps 763 mmHg 40%
    13:00 +33°C° 0 mm 3 mps 763 mmHg 39%
    14:00 +33°C° 0 mm 4 mps 762 mmHg 38%
    15:00 +34°C° 0 mm 5 mps 762 mmHg 38%
    16:00 +32°C° 0 mm 5 mps 762 mmHg 42%
    17:00 +30°C° 0 mm 5 mps 762 mmHg 47%
    18:00 +29°C° 0 mm 5 mps 761 mmHg 52%
    19:00 +27°C° 0 mm 5 mps 762 mmHg 59%
    20:00 +26°C° 0 mm 5 mps 762 mmHg 65%
    21:00 +23°C° 0 mm 5 mps 763 mmHg 71%
    22:00 +23°C° 0 mm 4 mps 763 mmHg 73%
    23:00 +22°C° 0 mm 4 mps 763 mmHg 75%
    Show more